Flag for Canada Weather past 2 weeks in Fort St. John, British Columbia, Canada

54 °F

Passing clouds.

Feels Like: 50 °F
Forecast: 47 / 60 °F
Wind: 13 mph from Southwest

Location: Fort St John

Current Time: Oct 10, 2015 at 4:30:33 AM

Latest Report: Oct 10, 2015 at 4:00 AM

Visibility: 15 mi

Pressure: 29.34 "Hg (27.01 "Hg at 689m altitude)

Humidity: 67%

Dew point: 43 °F

Location of Fort St. JohnLocation

Historic Weather in Fort St. John — Graph


Fort St. John temperature yesterday

Maximum temperature yesterday: 57 °F (at 4:00 PM)
Minimum temperature yesterday: 46 °F (at 4:00 AM)
Average temperature yesterday: 52 °F

Past Weeks' High & Low Weather Summary

High70 °F (Sep 30, 1:00 PM)100% (Oct 4, 6:00 AM)30.66 "Hg (Oct 4, 6:00 AM)
Low23 °F (Oct 3, 7:00 AM)32% (Oct 5, 4:00 PM)29.30 "Hg (Oct 9, 10:00 PM)
Average45 °F69%30.01 "Hg
* Reported Sep 25 3:00 AM — Oct 10 3:00 AM, Fort St. John, Weather by CustomWeather, © 2015

Note: Actual official high and low records may vary slightly from our data, if they occured in-between our weather recording intervals... More about our weather records


Fort St. John weather history for previous 24 hours

Time TempWeatherWind HumidityBarometerVisibility
3:00 AM
Sat, Oct 10
55 °FPartly cloudy.12 mph67%29.35 "Hg15 mi
2:00 AM54 °FPassing clouds.13 mph77%29.34 "Hg15 mi
1:00 AM54 °FPassing clouds.10 mph82%29.33 "Hg15 mi
12:00 AM52 °FPassing clouds.13 mph88%29.33 "Hg15 mi
11:00 PM
Fri, Oct 9
54 °FSprinkles. Partly cloudy.7 mph88%29.35 "Hg10 mi
10:00 PM55 °FSprinkles. Passing clouds.6 mph67%29.30 "Hg15 mi
9:54 PM55 °FSprinkles. Passing clouds.9 mph67%29.32 "Hg15 mi
9:00 PM52 °FPassing clouds.7 mph72%29.31 "Hg15 mi
8:00 PM52 °FPassing clouds.9 mph77%29.32 "Hg15 mi
7:00 PM52 °FBroken clouds.8 mph77%29.35 "Hg15 mi
6:00 PM57 °FPartly sunny.10 mph72%29.37 "Hg15 mi
5:00 PM57 °FMore clouds than sun.9 mph72%29.41 "Hg15 mi
4:00 PM57 °FMostly cloudy.13 mph72%29.43 "Hg15 mi
3:00 PM55 °FMore clouds than sun.17 mph82%29.44 "Hg15 mi
2:00 PM55 °FMore clouds than sun.12 mph82%29.49 "Hg15 mi
1:00 PM54 °FMore clouds than sun.8 mph88%29.53 "Hg15 mi
12:00 PM52 °FSprinkles. Mostly cloudy.8 mph88%29.56 "Hg15 mi
11:00 AM50 °FSprinkles. Mostly cloudy.10 mph94%29.56 "Hg15 mi
10:00 AM52 °FSprinkles. More clouds than sun.8 mph82%29.59 "Hg15 mi
9:00 AM50 °FMostly cloudy.7 mph88%29.62 "Hg15 mi
8:00 AM48 °FMostly cloudy.8 mph87%29.65 "Hg15 mi
7:00 AM48 °FPassing clouds.8 mph87%29.68 "Hg15 mi
6:00 AM46 °FPartly cloudy.6 mph87%29.72 "Hg15 mi
5:00 AM46 °FPassing clouds.10 mph87%29.75 "Hg15 mi
4:00 AM46 °FPassing clouds.10 mph87%29.77 "Hg15 mi
Weather by CustomWeather, © 2015

See weather overviewHow to use our weather pages